Location: Crane Creek
(37.9716°N, 119.9816°W)
Time: 08:34:37
(UTC+00:00)

Cosmos 1844 Rocket - Pass Details

Date: 13 June 2024
Orbit: 825 x 843 km, 71.0° (Epoch: 18 July)

Event Time Altitude Azimuth Distance (km) Brightness Sun altitude
Exits shadow 12:01:09 - 248° (WSW) 2,680 4.7 -6.7°
Reaches altitude 10° 12:02:00 10° 253° (WSW) 2,429 4.5 -6.6°
Maximum altitude 12:06:17 22° 304° (NW) 1,717 4.1 -5.9°
Drops below altitude 10° 12:10:36 10° 355° (N) 2,433 5.5 -5.2°
Sets 12:13:35 0° 10° (N) 3,369 6.6 -4.7°
